Pegasus-1
1 41846U 16066F 20331.57407149 .00000592 00000-0 98230-4 0 9990
2 41846 098.6414 023.1614 0367546 110.2594 253.8499 14.37876983212266
CAS-2T
1 41847U 16066G 20331.73906966 .00000198 00000-0 39144-4 0 9991
2 41847 98.6332 23.7125 0366586 105.1834 259.0196 14.38116869212748
EO-88
1 42017U 17008BX 20331.43747440 .00004220 00000-0 16160-3 0 9997
2 42017 097.3436 036.5225 0007732 105.9691 254.2400 15.27063395210260
CAS-4B
1 42759U 17034B 20331.76472413 .00000702 00000-0 55893-4 0 9998
2 42759 43.0178 215.1931 0011114 328.6584 138.4508 15.09968294190505
CAS-4A
1 42761U 17034D 20331.76683557 .00000696 00000-0 55408-4 0 9998
2 42761 43.0175 214.3718 0011580 330.2249 137.7716 15.10047906190506
UCLSat
1 42765U 17036A 20331.62887866 .00003240 00000-0 13653-3 0 9991
2 42765 97.2810 21.3600 0011493 166.0317 194.1241 15.23975399190686
NIUSat
1 42766U 17036B 20331.41416280 .00002500 00000-0 11193-3 0 9992
2 42766 097.2808 018.1710 0015737 164.7062 195.4653 15.22063083190326
LituanicaSAT 2
1 42768U 17036D 20331.79737578 .00005478 00000-0 22288-3 0 9995
2 42768 97.2877 21.7868 0015013 157.3052 202.8853 15.24819663190579
Aalto 1
1 42775U 17036L 20331.38746532 .00001928 00000-0 86888-4 0 9991
2 42775 97.2779 18.4679 0014145 163.4714 196.6986 15.22125977190303
URSA MAIOR
1 42776U 17036M 20331.09321389 .00002147 00000-0 95833-4 0 9993
2 42776 097.2796 018.5409 0013972 163.8684 196.3000 15.22337364190277
Max Valier Sat
1 42778U 17036P 20331.38922535 .00002472 00000-0 10797-3 0 9993
2 42778 97.2857 20.3862 0012560 164.9642 195.1971 15.22961552190376
Pegasus
1 42784U 17036V 20331.42562974 .00003035 00000-0 12936-3 0 9995
2 42784 097.2816 020.7849 0012018 168.3885 191.7632 15.23630262190437
NUDATSat
1 42787U 17036Y 20331.59694947 .00004602 00000-0 18607-3 0 9994
2 42787 097.2846 022.7467 0011478 162.3297 197.8340 15.25154457190400
SUCHAI 1
1 42788U 17036Z 20331.38804793 .00003572 00000-0 14898-3 0 9997
2 42788 97.2827 21.4958 0011597 166.1512 194.0046 15.24258765190548
SKCUBE
1 42789U 17036AA 20331.38673108 .00003322 00000-0 13953-3 0 9996
2 42789 097.2820 021.2935 0011472 166.5551 193.5995 15.24066349190456
VZLUSAT 1
1 42790U 17036AB 20331.39105295 .00004572 00000-0 18505-3 0 9992
2 42790 097.2850 022.5380 0011068 163.2541 196.9064 15.25127405190527
VENTA 1
1 42791U 17036AC 20331.42892295 .00003373 00000-0 14174-3 0 9996
2 42791 097.2817 021.3663 0011146 166.6294 193.5241 15.24041748190457
Robusta 1B
1 42792U 17036AD 20331.18823015 .00003335 00000-0 13923-3 0 9993
2 42792 97.2823 21.4050 0011046 167.1268 193.0254 15.24272165190450
D-SAT
1 42794U 17036AF 20331.81570997 .00000646 00000-0 60901-4 0 9994
2 42794 97.4791 356.3100 0125950 182.2615 177.8051 14.91372578186898
TechnoSat
1 42829U 17042E 20331.67699781 .00000469 00000-0 52439-4 0 9997
2 42829 97.4947 205.6106 0015658 102.5040 257.7932 14.91168210183464
QIKCOM-1
1 42983U 98067NF 20331.14747423 .00011347 00000-0 12700-3 0 9996
2 42983 51.6373 209.5911 0002584 307.7700 52.3060 15.63242282175568
AO-91
1 43017U 17073E 20331.68955812 .00001188 00000-0 97935-4 0 9991
2 43017 97.7160 237.6071 0254869 241.5224 116.0104 14.79170585163142
EcAMSat
1 43019U 98067NG 20331.80911042 .00022970 00000-0 19291-3 0 9996
2 43019 51.6394 185.6013 0002309 288.3463 71.7283 15.69799833258260
PICSAT
1 43132U 18004X 20331.75456535 .00003755 00000-0 15367-3 0 9990
2 43132 97.4331 42.0000 0008998 193.1010 166.9995 15.24914620159786
AO-92
1 43137U 18004AC 20331.76329699 .00002760 00000-0 11511-3 0 9998
2 43137 97.4313 41.7109 0008553 195.2191 164.8790 15.24507607159768
TianYi 2
1 43155U 18008A 20331.78239580 .00002021 00000-0 12145-3 0 9997
2 43155 97.4302 36.6005 0016146 312.1391 165.0793 15.11908683157447
Zhou Enlai
1 43156U 18008B 20331.73483660 .00002310 00000-0 14000-3 0 9996
2 43156 97.4347 36.3923 0013339 312.4577 202.4606 15.11480552157385
TianYi 6
1 43158U 18008D 20331.73050443 .00001894 00000-0 11705-3 0 9992
2 43158 97.4278 35.2400 0012684 311.2301 165.3776 15.10980502157320
S-Net D
1 43186U 18014G 20331.48963614 .00001059 00000-0 97226-4 0 9991
2 43186 97.6854 236.5977 0012149 48.2024 312.0234 14.96898453153932
S-Net B
1 43187U 18014H 20331.62318582 .00001058 00000-0 97154-4 0 9995
2 43187 97.6852 236.7024 0012145 47.7343 312.4906 14.96898289153959
S-Net A
1 43188U 18014J 20331.62307291 .00001045 00000-0 96006-4 0 9992
2 43188 97.6855 236.7384 0012137 47.8231 312.4020 14.96897687153958
S-Net C
1 43189U 18014K 20331.75725817 .00001073 00000-0 98442-4 0 9992
2 43189 97.6853 236.8284 0012146 47.3254 312.8989 14.96897776152526
FMN 1
1 43192U 18015A 20331.76985791 .00005228 00000-0 20324-3 0 9996
2 43192 97.4634 100.7629 0014243 234.8900 261.3066 15.26394798156650
Shaonian Xing
1 43199U 18015H 20331.75542951 .00004161 00000-0 16253-3 0 9990
2 43199 97.4426 98.5777 0015059 245.1310 251.1436 15.26349986156714
UBAKUSAT
1 43467U 98067NQ 20331.79977849 .00225739 30936-4 57747-3 0 9999
2 43467 51.6277 158.5776 0004013 240.4144 119.6464 15.94873720145805
EQUISat
1 43552U 98067PA 20331.41015459 .00238264 32919-4 64159-3 0 9998
2 43552 051.6251 168.8124 0002941 247.4722 112.5974 15.93906993135827
SiriusSat 1
1 43595U 98067PG 20331.83403908 .00331414 58788-4 56251-3 0 9998
2 43595 51.6171 166.8434 0010643 269.2912 90.8147 16.01979418130735
SiriusSat 2
1 43596U 98067PH 20331.84247995 .00335934 60101-4 57179-3 0 9995
2 43596 51.6190 167.7215 0009955 256.3372 103.7520 16.01944551130723
SurfSat
1 43614U 18070B 20331.44370953 .00007191 00000-0 17844-3 0 9993
2 43614 93.0293 221.6973 0017720 73.6731 286.6471 15.40208036123403
CP-7 DAVE
1 43615U 18070C 20331.42785488 .00006972 00000-0 17415-3 0 9995
2 43615 093.0295 221.6700 0017877 073.4572 286.8645 15.40004218123397
ELFIN-B
1 43616U 18070D 20331.69602203 .00008944 00000-0 21019-3 0 9994
2 43616 93.0253 221.7901 0018093 72.5434 287.7798 15.41831559123503
ELFIN-A
1 43617U 18070E 20331.44587851 .00011769 00000-0 27384-3 0 9999
2 43617 093.0310 222.3388 0017508 070.7811 289.5337 15.42125961123472
STARS-Me Mother
1 43640U 98067PQ 20331.36419658 .00046067 00000-0 35114-3 0 9998
2 43640 051.6325 204.0380 0002292 254.4316 105.6430 15.71753387122133
CubeBel 1
1 43666U 18083E 20331.82831590 .00002328 00000-0 11548-3 0 9997
2 43666 97.4771 356.6095 0015734 149.6959 23.0291 15.18618282115252
Changshagaoxin
1 43669U 18083H 20331.72074475 .00002018 00000-0 10367-3 0 9994
2 43669 97.4657 354.1992 0011640 142.6194 329.2343 15.17575268115134
Ten-Koh
1 43677U 18084G 20331.29967639 .00000311 00000-0 37807-4 0 9992
2 43677 97.9001 88.1446 0015674 349.5394 10.5496 14.90352159113049
PO-101
1 43678U 18084H 20331.74346400 -.00000165 00000-0 -10672-4 0 9990
2 43678 97.9020 90.3199 0010180 9.3084 350.8329 14.91672093113212
IRVINE 01
1 43693U 18088D 20331.49409914 .00007159 00000-0 29482-3 0 9999
2 43693 085.0325 329.6928 0019531 059.0497 301.2662 15.23740240113511
QO-100
1 43700U 18090A 20331.57330333 .00000156 00000-0 00000-0 0 9990
2 43700 000.0131 336.4266 0002026 293.4128 028.2855 01.00272209007336
Reaktor Hello World
1 43743U 18096AA 20331.48660266 .00003416 00000-0 12789-3 0 9996
2 43743 097.4081 044.4490 0016005 275.6679 084.2735 15.27872708111134
MinXSS-2
1 43758U 18099A 20331.15969730 .00000927 00000-0 88034-4 0 9998
2 43758 97.6920 40.3351 0015810 14.8357 345.3325 14.95806789108125
